EDT,Max TemperatureF,Mean TemperatureF,Min TemperatureF,Max Dew PointF,MeanDew PointF,Min DewpointF,Max Humidity, Mean Humidity, Min Humidity, Max Sea Level PressureIn, Mean Sea Level PressureIn, Min Sea Level PressureIn, Max VisibilityMiles, Mean VisibilityMiles, Min VisibilityMiles, Max Wind SpeedMPH, Mean Wind SpeedMPH, Max Gust SpeedMPH,PrecipitationIn, CloudCover, Events, WindDirDegrees
2012-3-1,28,26,23,24,22,19,91,83,75,29.98,29.90,29.85,7,2,0,17,10,24,0.00,,Snow,103
2012-3-2,27,24,20,24,18,15,87,77,69,30.13,30.09,30.04,10,10,10,7,2,,0.00,,,87
2012-3-3,39,32,26,36,31,24,100,94,53,29.94,29.56,29.32,10,5,0,9,3,,0.28,,Fog-Snow,94
2012-3-4,40,32,25,30,20,16,93,57,38,29.60,29.54,29.49,10,10,2,10,5,21,0.00,3,Snow,284
2012-3-5,28,21,14,17,7,2,76,54,41,30.27,29.90,29.59,10,10,7,15,9,24,0.00,2,Snow,288
2012-3-6,33,22,10,13,1,-10,84,48,17,30.54,30.46,30.32,10,10,10,16,7,22,0.00,0,,284
2012-3-7,55,34,12,29,17,8,90,62,26,30.53,30.33,30.17,10,10,10,7,1,,0.00,1,,76
2012-3-8,64,45,26,45,34,26,99,69,39,30.18,29.97,29.71,10,9,3,13,2,22,0.00,3,,179
2012-3-9,44,36,27,39,22,12,89,63,36,30.09,29.96,29.70,10,10,2,17,8,29,0.04,6,Rain-Snow,294
2012-3-10,36,28,21,27,22,13,98,76,39,30.47,30.34,30.11,10,7,0,9,1,17,0.25,5,Snow,282
2012-3-11,55,36,17,30,22,16,96,71,28,30.45,30.31,30.19,10,10,7,6,0,,0.00,1,,226
2012-3-12,62,43,24,34,29,24,99,69,30,30.26,30.20,30.11,10,10,7,9,1,,0.00,0,,273
2012-3-13,65,50,34,47,37,32,91,70,46,30.09,29.96,29.83,10,10,10,10,1,17,0.05,6,Rain,20
2012-3-14,50,40,31,44,36,31,100,91,67,30.14,30.05,29.96,10,7,0,6,1,,0.00,7,Fog,97
2012-3-15,40,36,32,35,33,32,99,92,76,30.37,30.31,30.25,10,9,3,6,1,,0.00,8,,101
2012-3-16,37,34,32,36,34,32,99,96,87,30.33,30.22,30.09,10,6,1,6,3,,0.13,8,Rain-Snow,83
2012-3-17,53,42,32,40,37,32,100,80,55,30.35,30.28,30.16,10,10,7,9,4,,0.00,4,,265
2012-3-18,78,54,30,51,37,31,100,76,23,30.30,30.19,30.08,10,6,0,10,1,16,0.00,3,Fog,263
2012-3-19,76,54,32,49,40,32,100,73,34,30.23,30.16,30.12,10,8,5,10,1,17,0.00,2,,105
2012-3-20,79,56,34,52,44,34,100,66,30,30.30,30.24,30.16,10,9,4,6,0,,0.00,1,,281
2012-3-21,81,58,35,51,44,36,100,71,24,30.33,30.25,30.17,10,7,0,9,1,,0.00,2,Fog,273
2012-3-22,81,58,35,52,44,36,100,67,26,30.21,30.11,29.97,10,8,0,13,3,23,0.00,1,Fog,294
2012-3-23,66,57,48,52,32,9,83,44,11,30.15,30.08,30.02,10,10,10,22,8,32,0.00,0,,300
2012-3-24,56,50,43,20,13,0,36,24,11,30.15,30.09,30.03,10,10,10,12,6,16,0.00,5,Rain,283
2012-3-25,45,42,40,42,39,34,100,91,65,30.01,29.93,29.79,10,8,4,5,0,,0.21,8,Rain,84
2012-3-26,43,36,29,42,24,11,100,69,43,29.91,29.76,29.59,10,9,1,29,9,41,0.00,6,Rain-Snow,308
2012-3-27,41,31,21,0,-3,-10,38,25,12,30.17,30.10,29.99,10,10,10,25,15,43,0.00,0,,295
2012-3-28,41,36,30,35,25,12,99,70,46,30.13,29.80,29.58,10,10,7,8,2,,0.00,8,Rain-Snow,81
2012-3-29,39,37,35,37,32,27,100,81,65,29.86,29.70,29.56,10,9,5,17,6,24,0.00,8,Rain-Snow,298
2012-3-30,42,36,30,28,18,10,80,51,27,30.03,29.96,29.90,10,10,2,17,10,26,0.00,4,Snow,302
2012-3-31,49,40,31,28,23,19,80,56,31,30.03,29.96,29.84,10,10,10,6,1,,0.00,6,,147